Starlink 35299

operational
NORAD ID: 66071 Int'l Des: 2025-235 Owner: SPXS Country: US Constellation: starlink
NOTLE

Starlink 35299について

説明を読み込み中...

リアルタイム位置

3D地球を読み込み中...

次回通過

高度履歴

Altitude vs Time

uPlot chart will show altitude changes over time

軌道要素

1 66071C 25235Q 25293.06715278 .00536080 00000+0 79399-3 0 2932
2 66071 53.1589 188.8579 0005717 294.2853 196.8314 16.03621942 19
Epoch: Oct 20, 2025 • Age: 19 hours

現在のステータス

高度 271.6 km
速度 7.75 km/s
衛星直下点 52.40°N, 59.36°W
打ち上げ日 Oct 19, 2025
運用期間 1 days
タイプ internet

技術仕様

分類 Payload
質量 575.00 kg
乾燥質量 530.00 kg
総質量 575.00 kg
長さ 0.30 m
直径 4.10 m
スパン 29.00 m
形状 Box + pan
製造者 SPXS
バスタイプ Starlink V2MO
フェーズステータス In Orbit
所有者/国 SPXS/US

大規模コンステレーション

Loading constellations...